Regional Weather Roundup
Issued by NWS

Home | Current Version | Previous Version | Graphics & Text | Print | Product List | Glossary Off
Versions: 1 2 3 4 5 6 7 8 9 10 11 12 13 14 15 16 17 18 19 20 21 22 23 24 25 26 27 28 29 30 31 32 33 34 35 36 37 38 39 40 41 42 43 44 45 46 47 48 49 50

000
ASUS43 KDMX 282108
RWRIA

WEATHER ROUNDUP FOR IOWA
NATIONAL WEATHER SERVICE DES MOINES IA
400 PM CDT THU JUL 28 2016

NOTE: "FAIR" INDICATES FEW OR NO CLOUDS BELOW 12,000 FEET WITH NO
SIGNIFICANT WEATHER AND/OR OBSTRUCTIONS TO VISIBILITY.

* - THESE STATIONS ARE NOT NWS STATIONS...THUS NOT UNDER NWS
QUALITY CONTROL.  THEY ALSO DO NOT REPORT WEATHER SUCH
AS PRECIPITATION OR FOG.

IAZ001>003-012>014-020>022-031>034-043>046-282200-
   NORTHWEST IOWA

CITY           SKY/WX    TMP DP  RH WIND       PRES   REMARKS
CARROLL *      MOSUNNY   77  63  61 N15       30.00S
CHEROKEE *     MOSUNNY   78  64  63 N10       30.01F
DENISON *      MOSUNNY   77  64  65 NW12      29.99S
LE MARS *      PTSUNNY   79  63  57 NE10      30.01F HX  80
SHELDON *      MOSUNNY   77  64  65 NE10      30.01F
SIOUX CITY     PTSUNNY   84  61  45 NE10      30.00F HX  84
SPENCER        PTSUNNY   76  62  62 NE10      30.03S
STORM LAKE *     N/A     75  63  64 N10G18    30.02F
$$

IAZ055>058-069>071-079>083-090>094-282200-
   SOUTHWEST IOWA

CITY           SKY/WX    TMP DP  RH WIND       PRES   REMARKS
ATLANTIC *     MOSUNNY   81  64  57 N12       29.98F HX  82
CLARINDA *       N/A     84  66  54 MISG      29.98F HX  86
COUNCIL BLFS * MOSUNNY   82  64  54 N9G16     29.99F HX  84
CRESTON *      MOSUNNY   82  64  54 N14       29.98F HX  84
HARLAN  *      MOSUNNY   79  66  65 N10       30.02F HX  81
LAMONI         SUNNY     82  65  56 N14       29.95F HX  84
RED OAK *      SUNNY     82  66  57 N10       29.97F HX  85
SHENANDOAH *   SUNNY     82  68  61 N8G15     29.97F HX  85
$$

IAZ047>049-059>061-072>074-084-282200-
   CENTRAL IOWA

CITY           SKY/WX    TMP DP  RH WIND       PRES   REMARKS
AMES           MOSUNNY   77  65  66 NW14G20   29.98F
ANKENY *         N/A    N/A N/A N/A MISG        N/A
BOONE *        MOSUNNY   77  63  61 N9G17     29.99S
CHARITON *       N/A    N/A N/A N/A MISG        N/A
DES MOINES     MOSUNNY   80  62  54 N14G22    29.97S HX  81
GRINNELL*      MOSUNNY   79  64  60 NW9G16    29.95F HX  80
KNOXVILLE *    PTSUNNY   79  64  61 NW15G21   29.95S HX  81
MARSHALLTOWN   PTSUNNY   76  66  71 NW8       29.95S
NEWTON *       MOSUNNY   77  66  69 NW13      29.95S
PELLA *        MOSUNNY   80  65  61 NW10G20   29.96S HX  82
PERRY *          N/A     78  66  67 NW9       29.99F HX  80
$$

IAZ004>006-015-016-023>025-035-036-282200-
   NORTH CENTRAL IOWA

CITY           SKY/WX    TMP DP  RH WIND       PRES   REMARKS
ALGONA *       CLOUDY    73  64  73 N8        30.02S
ESTHERVILLE    PTSUNNY   75  65  70 N7        30.03R
FORT DODGE *   PTSUNNY   75  64  69 N9G18     30.01F
MASON CITY     CLOUDY    75  65  70 NW10      29.99F
FOREST CITY *  CLOUDY    73  63  68 N15G30    29.99S
IOWA FALLS *   CLOUDY    75  64  68 NW9G16    29.99S
$$

IAZ007>011-017>019-026>030-037>042-050>054-066-282200-
   NORTHEAST IOWA

CITY           SKY/WX    TMP DP  RH WIND       PRES   REMARKS
CEDAR RAPIDS   MOSUNNY   80  68  66 NW14      29.91R HX  83
CHARLES CITY * CLOUDY    75  68  78 N13       29.96F
CLINTON *      SUNNY     82  70  66 NW7       29.88S HX  86
DECORAH *      CLOUDY    70  66  88 N9        29.95R
DUBUQUE        PTSUNNY   80  69  69 NW12      29.91R HX  83
MONTICELLO *   PTSUNNY   81  68  65 NW10      29.89S HX  83
OELWEIN *      CLOUDY    75  68  78 NW13      29.93S
WATERLOO       CLOUDY    75  66  73 NW13      29.93S
$$

IAZ064-065-067-068-078-282200-
   EAST CENTRAL IOWA

CITY           SKY/WX    TMP DP  RH WIND       PRES   REMARKS
DAVENPORT      SUNNY     81  67  62 NW7       29.89F HX  83
IOWA CITY      PTSUNNY   82  66  58 NW15      29.92R HX  84
MT. PLEASANT * PTSUNNY   82  68  62 NW12      29.92S HX  85
MUSCATINE *    SUNNY     82  66  57 NW10      29.90S HX  85
QUAD CITIES    SUNNY     83  66  56 W12       29.88R HX  85
$$

IAZ062-063-075>077-085>089-095>099-282200-
   SOUTHEAST IOWA

CITY           SKY/WX    TMP DP  RH WIND       PRES   REMARKS
BURLINGTON     SUNNY     80  68  66 NW10      29.90S HX  83
FAIRFIELD *    MOSUNNY   79  66  65 NW14      29.93S HX  81
KEOKUK *       SUNNY     82  68  61 N10       29.90S HX  85
OSKALOOSA *      N/A     79  67  67 NW14      29.94F HX  81
OTTUMWA        SUNNY     78  65  63 NW13      29.92S HX  80
WASHINGTON *   PTSUNNY   79  68  69 NW13      29.93S HX  81
$$

ABBREVIATIONS USED IN REMARKS
   TC - TEMPERATURES IN CELSIUS
  WCI - WIND CHILL INDEX
   HX - HEAT INDEX
  VSB - VISIBILITY
$$





USA.gov is the U.S. government's official web portal to all federal, state and local government web resources and services.